Temperature
5 4 4 4 4 4 3 3 3 3 3 3 3 4 4 4 4 4 4 4 4 4 4 4 4 4 4 4 4 3 3 3 3 3 3 3 3 4
4 4 4 4 3 3 3 3 2 2 2 2 3 3 3 4 4 4 4 4 4 4 4 4 4 4 3 3 3 3 3 3 3 3 3 3 3 3
4 4 4 3 3 3 3 3 2 2 2 2 3 3 3 3 3 3 3 3 3 3 3 3 3 3 3 3 3 3 2 2 2 2 2 2 2 3
3 3 3 3 3 3 2 2 2 2 2 2 2 2 2 2 2 2 3 3 3 3 3 3 3 3 3 3 2 2 2 2 2 2 2 2 2 2
3 3 3 2 2 2 2 2 2 2 2 2 2 2 2 2 2 2 2 2 2 2 2 2 2 2 2 2 2 2 2 1 1 2 2 2 2 2
3 2 2 2 2 2 2 2 1 1 1 1 1 1 1 1 1 1 1 1 1 2 1 1 2 1 2 1 1 1 1 1 1 1 1 1 1 2
2 2 2 2 2 1 1 1 1 1 1 1 1 1 1 1 1 1 1 1 1 1 1 1 1 1 1 1 1 1 1 1 1 1 1 1 1 1
2 2 2 1 1 1 1 1 1 0 0 0 0 0 0 0 -0 -0 -0 -0 -0 0 0 0 0 0 0 0 0 1 0 0 0 1 0 0 0 1
1 1 1 1 1 1 1 0 0 0 -0 -0 -0 -0 -0 -0 -1 -1 -1 -1 -1 -1 -1 -0 -0 -0 -0 0 0 0 0 0 0 0 0 0 0 0
1 1 1 0 0 0 0 0 0 -0 -0 -0 -0 -0 -1 -1 -1 -1 -1 -1 -1 -1 -1 -1 -1 -1 -0 -0 -0 -0 -0 -0 -0 -0 -0 -0 -0 -0
0 0 0 0 -0 -0 -0 -0 -0 -0 -0 -0 -1 -1 -1 -1 -1 -1 -1 -2 -2 -2 -2 -2 -2 -1 -1 -1 -1 -1 -1 -1 -1 -1 -1 -1 -1 -0
-0 -0 -0 -0 -0 -1 -1 -1 -1 -1 -1 -1 -1 -1 -1 -1 -2 -2 -2 -2 -3 -3 -2 -2 -2 -2 -2 -1 -1 -1 -1 -1 -1 -1 -1 -1 -1 -1
-1 -1 -1 -1 -1 -1 -1 -1 -1 -1 -1 -1 -2 -2 -2 -2 -2 -2 -2 -3 -3 -3 -3 -3 -3 -3 -3 -3 -2 -2 -2 -2 -1 -1 -1 -1 -1 -1
-1 -1 -1 -1 -1 -1 -1 -1 -2 -2 -2 -2 -2 -2 -2 -2 -3 -3 -3 -3 -3 -3 -3 -3 -3 -3 -3 -3 -3 -2 -2 -2 -2 -2 -2 -2 -1 -1
-2 -2 -2 -2 -2 -2 -2 -2 -2 -2 -2 -2 -3 -3 -3 -3 -3 -3 -3 -3 -3 -3 -3 -3 -3 -3 -3 -3 -3 -3 -3 -3 -2 -2 -2 -2 -2 -2
-2 -2 -2 -2 -2 -2 -2 -3 -3 -3 -3 -3 -3 -3 -3 -3 -3 -3 -3 -3 -3 -3 -3 -3 -3 -3 -3 -3 -3 -3 -3 -4 -3 -3 -3 -2 -2 -2
-2 -3 -3 -3 -3 -3 -3 -3 -3 -3 -3 -3 -3 -4 -4 -4 -4 -4 -4 -4 -4 -4 -4 -3 -3 -3 -3 -3 -3 -4 -4 -4 -4 -4 -3 -3 -3 -3
-3 -3 -3 -3 -3 -3 -3 -3 -3 -3 -4 -4 -4 -4 -4 -4 -4 -4 -4 -4 -4 -4 -4 -4 -4 -4 -4 -4 -4 -4 -4 -4 -4 -4 -4 -4 -3 -3
-3 -3 -3 -3 -3 -3 -4 -4 -4 -4 -4 -4 -4 -4 -5 -5 -4 -4 -4 -4 -4 -4 -4 -4 -4 -5 -5 -5 -4 -4 -4 -4 -4 -4 -4 -4 -4 -3
-4 -3 -3 -3 -4 -4 -4 -4 -4 -4 -4 -4 -4 -5 -5 -5 -5 -5 -5 -5 -5 -5 -5 -5 -5 -5 -5 -5 -5 -4 -4 -5 -4 -4 -4 -4 -4 -4
-4 -4 -4 -4 -4 -4 -4 -4 -4 -4 -5 -5 -5 -5 -5 -5 -5 -5 -5 -5 -5 -5 -5 -5 -5 -5 -5 -5 -5 -5 -5 -5 -5 -5 -5 -5 -5 -4
-4 -4 -4 -4 -4 -4 -4 -4 -5 -5 -5 -5 -5 -5 -5 -5 -5 -5 -5 -5 -5 -5 -5 -5 -5 -5 -5 -5 -5 -5 -5 -5 -5 -5 -5 -5 -5 -5
-4 -4 -4 -4 -4 -4 -5 -5 -5 -5 -5 -5 -5 -5 -5 -5 -5 -5 -5 -6 -6 -6 -6 -6 -6 -5 -5 -5 -5 -5 -5 -5 -5 -5 -5 -5 -5 -5
Wind_Speed
4 4 4 3 3 3 4 4 4 5 5 4 3 3 5 6 6 7 7 8 9 9 9 9 10 10 10 11 10 10 10 10 11 11 12 12 13 14
4 4 4 3 3 3 3 4 5 5 5 4 4 4 5 5 6 7 7 8 8 8 9 9 9 9 9 9 10 10 10 11 11 12 12 13 13 14
4 5 5 4 4 3 3 4 4 5 7 6 5 5 5 5 5 6 7 6 6 6 7 8 8 8 9 9 10 10 10 10 11 12 12 12 13 13
5 5 5 4 5 4 4 4 4 5 6 7 6 5 6 6 5 6 5 5 6 6 7 8 8 8 9 9 10 10 10 10 11 12 12 12 13 13
5 5 4 4 5 4 4 4 4 4 5 6 6 5 5 5 5 5 5 5 6 6 7 8 9 9 9 9 10 10 10 11 11 11 12 12 12 13
5 5 5 5 5 5 4 5 4 4 5 5 5 5 5 5 4 4 5 5 5 5 5 7 8 8 9 9 10 10 10 10 10 11 11 12 12 12
4 5 5 5 6 5 4 5 5 4 4 5 5 5 4 4 4 4 5 6 6 4 5 5 5 5 6 8 9 9 10 10 10 11 11 12 12 12
5 4 4 5 6 7 7 7 6 6 5 5 5 5 6 5 5 5 5 5 5 3 5 6 5 5 5 6 7 8 9 10 10 11 11 12 12 13
5 4 4 4 6 5 6 6 7 7 8 7 7 7 7 6 6 6 6 6 6 5 5 6 5 6 6 7 8 9 9 9 10 11 11 11 12 13
5 5 5 5 5 5 4 5 5 6 6 7 7 7 7 6 6 6 7 7 7 5 4 5 6 6 6 6 7 8 10 10 10 10 10 11 12 13
5 5 5 5 4 5 5 5 5 5 5 6 7 7 7 7 6 5 5 5 5 5 3 4 5 6 6 5 6 7 9 9 10 10 10 10 11 12
4 4 5 6 6 6 5 5 6 5 4 4 5 6 6 6 7 6 5 5 4 4 3 3 4 4 4 4 5 6 6 8 9 9 10 10 10 8
4 4 4 6 6 6 7 6 6 5 4 4 4 4 4 4 4 4 5 5 5 5 3 3 4 4 4 4 4 5 5 6 6 7 8 9 10 8
5 4 4 5 6 6 6 5 4 4 3 3 4 4 3 4 4 4 5 6 6 7 7 5 4 5 5 6 5 4 5 5 5 6 6 8 9 9
4 5 5 5 5 5 4 4 4 3 3 3 4 4 4 4 4 3 4 4 5 6 6 6 5 5 5 5 5 5 5 5 5 5 6 6 6 6
4 4 4 4 3 3 3 3 3 3 3 4 4 3 3 3 3 3 4 3 4 4 4 5 5 5 5 6 6 6 5 4 5 6 6 7 6 6
3 2 2 2 2 2 3 2 2 2 3 3 3 3 3 3 3 3 3 3 4 4 4 3 4 5 5 6 5 5 5 5 5 6 6 7 6 6
3 3 3 3 3 3 3 3 3 3 3 3 3 3 3 3 3 3 3 3 4 4 4 4 3 3 3 4 5 6 5 5 5 6 5 6 7 6
3 3 3 3 3 3 3 3 3 3 3 3 3 3 3 3 3 3 3 3 4 4 4 3 3 3 4 5 3 4 5 5 5 5 5 5 7 7
3 4 4 3 3 3 3 3 3 3 3 3 3 3 3 3 4 3 3 3 4 4 4 3 3 4 4 5 4 4 5 5 5 6 6 6 6 7
3 3 3 3 3 3 3 3 3 3 3 3 3 3 3 3 3 4 4 4 4 4 4 4 4 5 4 3 4 4 4 5 6 5 6 6 6 5
4 3 3 3 3 3 3 3 3 3 3 3 3 3 3 3 4 4 4 4 4 4 4 4 4 3 3 3 5 5 6 5 6 7 7 6 5 4
3 3 3 3 3 3 3 3 4 3 3 3 3 3 3 3 3 4 4 4 3 3 3 4 3 3 3 3 4 4 5 6 5 5 5 6 8 10
Wind_Direction
219 222 231 240 241 245 249 253 258 270 276 279 282 286 297 291 295 290 287 291 292 291 293 296 298 299 298 299 299 300 299 301 302 300 301 297 295 295
219 224 231 236 236 237 242 249 252 259 267 279 283 296 305 300 303 299 295 297 291 295 298 298 297 299 300 300 301 297 297 297 299 300 299 299 297 299
218 225 232 233 235 235 238 243 247 252 262 276 285 292 293 299 307 305 302 296 293 294 301 304 305 305 303 303 301 296 295 295 296 299 299 300 296 294
219 224 231 233 235 238 241 246 250 253 260 273 281 286 288 297 304 307 308 303 300 299 296 298 298 299 298 297 299 297 295 295 296 298 298 298 297 295
220 223 229 231 238 241 244 250 256 261 263 268 277 284 285 293 304 304 304 304 303 299 295 293 294 295 295 294 297 298 296 294 296 299 300 299 298 298
227 230 232 234 241 243 246 251 254 259 260 264 271 278 281 293 298 298 301 304 304 305 300 296 291 288 286 292 293 293 294 294 295 298 299 300 299 298
230 235 237 244 250 249 248 249 249 253 256 259 265 273 278 290 291 293 294 301 300 299 304 297 293 287 285 285 287 290 293 295 296 297 297 298 299 298
232 240 244 244 246 248 252 253 250 248 250 255 261 265 273 278 281 283 289 297 293 303 303 296 293 290 290 287 295 297 295 296 296 296 295 297 299 300
236 242 246 247 247 250 250 249 250 255 257 255 257 261 269 273 275 276 278 284 283 299 302 288 291 290 292 288 292 293 297 297 297 298 297 298 298 298
239 243 245 247 245 249 251 252 256 255 252 255 259 264 270 274 271 273 278 283 285 279 281 279 291 291 293 284 285 292 298 298 296 295 295 297 299 299
242 244 244 248 244 247 250 254 261 264 257 256 264 266 271 274 275 273 272 278 282 280 275 274 286 294 289 280 287 292 291 295 297 297 297 299 302 301
245 244 243 249 245 244 248 248 253 262 264 265 261 260 264 263 261 259 262 268 278 275 266 269 278 293 287 277 293 300 294 296 297 298 301 304 308 304
246 251 249 244 249 249 255 253 253 262 262 261 262 263 264 261 260 259 257 257 263 264 264 261 270 274 272 283 291 299 302 303 303 302 303 306 310 306
246 253 254 248 252 258 259 253 253 259 252 252 257 261 265 266 267 269 268 263 262 266 269 261 259 265 274 282 286 297 303 303 303 305 306 309 305 301
253 256 259 255 257 256 245 235 239 243 238 246 252 263 271 274 278 280 280 276 275 271 267 263 264 269 269 273 282 290 296 300 299 303 307 308 307 305
251 240 241 244 257 253 234 230 240 240 237 243 253 266 274 274 275 281 285 286 285 283 276 273 273 271 272 276 278 285 290 288 301 305 306 305 302 297
233 242 234 237 247 243 237 239 241 239 241 242 247 258 265 269 273 279 282 284 279 285 294 291 285 281 277 279 278 279 288 297 301 304 307 308 306 304
212 224 229 234 238 237 235 240 239 238 239 240 243 247 254 262 271 278 278 275 277 281 287 293 301 301 294 269 251 270 285 293 302 303 302 302 305 308
217 226 230 235 241 238 236 238 243 244 239 234 239 244 248 255 262 268 271 275 280 282 283 288 293 294 294 296 282 249 280 299 304 301 300 298 298 304
228 230 234 238 239 237 236 238 240 241 239 237 237 242 245 251 259 262 264 273 281 285 286 285 280 280 278 285 291 295 286 287 293 296 301 301 299 296
230 234 236 238 241 240 236 236 234 237 240 239 239 241 244 249 255 261 265 272 275 279 282 283 285 285 282 284 287 296 304 293 288 286 295 299 306 310
232 237 239 240 239 239 232 232 234 236 236 239 239 241 245 247 253 258 261 264 269 277 283 288 295 286 268 267 284 297 307 314 306 296 284 275 287 294
233 235 240 237 235 234 230 230 235 236 235 237 240 245 248 251 253 254 258 261 264 273 283 288 290 280 269 272 283 293 303 311 318 319 311 302 290 287
Height
1489 1490 1490 1491 1490 1490 1490 1490 1490 1488 1486 1485 1484 1482 1481 1480 1479 1477 1476 1474 1473 1472 1470 1469 1467 1466 1465 1464 1463 1462 1461 1460 1459 1459 1457 1456 1455 1454
1486 1487 1487 1487 1487 1486 1486 1486 1486 1485 1483 1481 1480 1479 1478 1477 1475 1474 1472 1471 1469 1468 1466 1465 1463 1462 1461 1460 1459 1458 1457 1456 1455 1454 1452 1451 1450 1449
1482 1483 1483 1483 1483 1483 1482 1482 1482 1481 1480 1478 1477 1476 1475 1474 1472 1471 1469 1467 1466 1464 1463 1461 1459 1458 1457 1456 1455 1453 1452 1451 1449 1448 1447 1446 1444 1443
1478 1479 1479 1479 1479 1479 1479 1478 1478 1477 1477 1474 1474 1473 1472 1471 1469 1467 1466 1464 1462 1461 1459 1457 1456 1454 1453 1452 1450 1449 1447 1446 1445 1443 1442 1441 1439 1438
1474 1475 1475 1475 1475 1475 1475 1474 1474 1473 1473 1472 1470 1469 1468 1467 1466 1464 1463 1461 1459 1458 1456 1454 1452 1451 1449 1448 1446 1445 1443 1442 1440 1439 1437 1436 1434 1433
1471 1471 1471 1471 1471 1471 1471 1470 1470 1470 1469 1468 1467 1466 1465 1464 1463 1461 1459 1458 1456 1454 1452 1451 1449 1447 1446 1444 1442 1440 1439 1437 1436 1434 1433 1431 1429 1428
1467 1467 1467 1467 1467 1467 1467 1467 1467 1466 1465 1464 1463 1463 1462 1461 1459 1458 1456 1454 1452 1451 1449 1447 1445 1443 1442 1440 1438 1436 1434 1433 1431 1430 1428 1427 1425 1424
1463 1463 1463 1464 1463 1463 1463 1463 1463 1462 1462 1461 1460 1459 1458 1458 1457 1455 1453 1451 1449 1448 1446 1444 1442 1440 1438 1436 1434 1432 1430 1428 1427 1425 1424 1422 1421 1419
1459 1459 1459 1459 1459 1459 1458 1458 1458 1458 1458 1458 1456 1455 1455 1454 1453 1451 1450 1448 1446 1445 1443 1439 1438 1436 1434 1432 1431 1429 1426 1424 1423 1421 1420 1418 1417 1415
1455 1455 1455 1455 1455 1455 1455 1454 1454 1454 1454 1453 1453 1452 1452 1451 1449 1448 1447 1445 1443 1441 1439 1436 1434 1432 1430 1428 1427 1425 1423 1421 1419 1417 1416 1414 1412 1411
1451 1451 1451 1451 1451 1451 1451 1450 1450 1450 1450 1449 1448 1448 1447 1446 1446 1445 1443 1441 1438 1437 1436 1434 1431 1428 1426 1425 1423 1421 1419 1417 1415 1413 1411 1410 1408 1406
1447 1447 1447 1447 1447 1447 1447 1446 1446 1445 1445 1445 1444 1443 1443 1442 1441 1440 1439 1437 1435 1433 1432 1431 1428 1426 1423 1421 1420 1418 1416 1414 1412 1410 1408 1406 1405 1403
1442 1442 1442 1443 1443 1443 1443 1442 1442 1442 1441 1440 1440 1439 1438 1438 1437 1436 1435 1434 1432 1431 1430 1428 1425 1424 1422 1418 1416 1415 1413 1411 1408 1406 1405 1403 1401 1400
1438 1438 1438 1438 1438 1438 1438 1438 1438 1438 1437 1436 1436 1435 1434 1433 1432 1432 1431 1430 1429 1428 1426 1425 1423 1421 1419 1416 1413 1411 1410 1408 1406 1403 1401 1400 1398 1397
1434 1434 1434 1434 1434 1434 1434 1434 1434 1434 1433 1432 1432 1431 1430 1429 1429 1428 1427 1426 1425 1423 1422 1421 1419 1418 1416 1414 1411 1409 1406 1405 1403 1401 1398 1396 1394 1393
1430 1431 1431 1430 1430 1430 1430 1430 1430 1430 1429 1429 1428 1427 1426 1426 1425 1424 1423 1422 1421 1419 1419 1417 1416 1415 1413 1411 1409 1406 1405 1402 1400 1398 1396 1394 1392 1390
1427 1427 1426 1426 1426 1426 1426 1426 1426 1426 1425 1425 1424 1424 1423 1422 1421 1421 1420 1419 1418 1416 1415 1414 1413 1411 1410 1408 1406 1404 1402 1400 1398 1396 1393 1390 1389 1388
1423 1423 1422 1422 1422 1423 1423 1423 1422 1422 1422 1422 1421 1420 1419 1419 1418 1417 1417 1416 1414 1413 1412 1411 1410 1408 1407 1404 1404 1401 1400 1398 1396 1394 1391 1388 1385 1385
1419 1419 1419 1419 1419 1419 1419 1419 1419 1419 1419 1418 1418 1417 1417 1416 1415 1414 1413 1413 1411 1410 1409 1408 1407 1405 1404 1401 1400 1400 1398 1395 1393 1391 1389 1386 1383 1381
1414 1415 1415 1415 1415 1416 1416 1416 1415 1415 1415 1415 1414 1414 1414 1413 1412 1411 1411 1410 1409 1407 1406 1405 1404 1403 1402 1401 1398 1396 1396 1393 1391 1388 1386 1384 1381 1379
1411 1411 1411 1411 1412 1412 1412 1412 1412 1412 1412 1411 1411 1411 1410 1410 1409 1408 1408 1407 1406 1405 1403 1403 1402 1401 1400 1398 1396 1393 1393 1391 1389 1387 1384 1381 1378 1376
1407 1408 1408 1408 1408 1409 1409 1408 1408 1408 1408 1408 1408 1408 1407 1407 1406 1405 1405 1404 1403 1402 1401 1400 1399 1398 1397 1395 1393 1391 1389 1388 1387 1385 1383 1381 1378 1375
1404 1404 1405 1405 1405 1405 1405 1405 1405 1405 1405 1405 1405 1404 1404 1404 1403 1403 1402 1401 1400 1399 1398 1397 1396 1395 1394 1393 1391 1389 1387 1385 1383 1382 1380 1379 1377 1375